DECAYED

STARLINK-31897, 59852 (Decayed)

Orbit data source: Space-Track

STARLINK-31897, 59852 was a payload satellite owned by SpaceX/Seattle (US) in LEO that was launched on Thu, 23 May 2024 UTC via an FALCON 9 launch vehicle from the Air Force Eastern Test Range (AFETR). Payload-class satellites include a variety of spacecraft equipped with specific instruments for various scientific and technological missions. These include communications satellites like Starlink; space stations such as the ISS; scientific satellites like the Hubble; Earth observation satellites from companies like Planet Labs, Umbra, and HawkEye 360; GPS; miniature CubeSats for education and research; and military/defense satellites.

Not visible in the next 10 days
Identifier
59852, 2024-097T
Orbit
Decayed
Country
Flag of USUS
Related business
Manufacturer
SpaceX/Seattle
Mission
Decayed Commercial Communications
Bus & Motor
STARLINK V2M, Unknown motor
Mass
730 kg wet, ~700 kg dry
Launch date (UTC)
2024-05-23 (2 years ago)
Launch vehicle
FALCON 9
Launch site
Air Force Eastern Test Range (AFETR)
Object type
Payload
Rocket body
Debris
Shape & HBR
Box + 2 Pan, 17.7 m
Radar Cross Section
33.884 m², Large (>1 m²)

Expand to show TLE details & history
Last TLE update: 8 months ago

TLE from 8 months ago
0 STARLINK-31897
1 59852U 24097T   25285.21752185  .05288322  65172-1  54435-2 0  9999
2 59852  42.9764 345.3245 0013531  47.4619 312.7404 16.13949953 79752
Epoch: 2025-10-12T05:13Z
TLE epoch observation values (Epoch: 2025-10-12T05:13:13.887Z)
Latitude
-0.00006°
Longitude
-114.02125°
Altitude
229.727 km
Speed
7.774 km/s
True Right ascension
23h 01m 17s
True Declination
0° 00' 00"
Sunlit
Object was in full shadow at epoch
Visualization orbit readout
Latitude
Unknown
Longitude
Unknown
Altitude
Unknown
Speed
Unknown
Apparent Right ascension
Unknown
Apparent Declination
Unknown
Sunlit
N/A
Visualization observer readout
Local Sidereal Time
21:30:12
Azimuth
Unknown
Elevation
Unknown
Doppler factor
Unknown
Orbital elements
Apogee altitude
247.004 km
Perigee altitude
229.099 km
Semi-major axis
6,616.188 km
Eccentricity
0.00135
Inclination
42.9764°
RAAN
345.3245°
Arg. of periapsis
47.4619°
True anomaly
312.62639°
Mean anomaly
312.7404°
Eccentric anomaly
312.68341°
Mean motion
4.03303 °/min
Orbital period
89.26 mins
BSTAR
0.0054435
Loading maneuver chart data...
Computing Atmospheric mass density...
Loading historical data...
Loading historical data...
Loading historical data...
Loading historical data...
Loading historical data...
Loading historical data...
Loading historical data...

Documentation

Showing up to 5 results
|